Year,Month,Day,Hour,Minute,Value (Times are PST for barometer in hPa)
2019,02,14,15,58,983.70
2019,02,14,15,59,983.90
2019,02,14,16,01,983.80
2019,02,14,16,02,983.90
2019,02,14,16,03,983.80
2019,02,14,16,04,983.90
2019,02,14,16,06,983.90
2019,02,14,16,07,983.80
2019,02,14,16,08,983.90
2019,02,14,16,09,983.80
2019,02,14,16,10,983.80
2019,02,14,16,11,983.90
2019,02,14,16,12,983.90
2019,02,14,16,13,983.90
2019,02,14,16,14,983.90
2019,02,14,16,15,983.90
2019,02,14,16,16,984.00
2019,02,14,16,17,984.00
2019,02,14,16,18,984.00
2019,02,14,16,19,984.00
2019,02,14,16,20,984.00
2019,02,14,16,21,984.00
2019,02,14,16,22,984.00
2019,02,14,16,23,983.90
2019,02,14,16,24,983.90
2019,02,14,16,25,983.90
2019,02,14,16,26,983.90
2019,02,14,16,27,983.90
2019,02,14,16,56,984.20
2019,02,14,16,57,984.30
2019,02,14,16,58,984.30
2019,02,14,16,59,984.30
2019,02,14,17,00,984.30
2019,02,14,17,01,984.30
2019,02,14,17,02,984.30
2019,02,14,17,03,984.30
2019,02,14,17,04,984.30
2019,02,14,17,05,984.30
2019,02,14,17,06,984.20
2019,02,14,17,07,984.30
2019,02,14,17,08,984.20
2019,02,14,17,09,984.20
2019,02,14,17,10,984.20
2019,02,14,17,11,984.20
2019,02,14,17,12,984.30
2019,02,14,17,13,984.30
2019,02,14,17,14,984.20
2019,02,14,17,15,984.20
2019,02,14,17,16,984.20
2019,02,14,17,17,984.30
2019,02,14,17,18,984.30
2019,02,14,17,19,984.40
2019,02,14,17,20,984.30
2019,02,14,17,21,984.40
2019,02,14,17,22,984.40
2019,02,14,17,23,984.40
2019,02,14,17,24,984.40
2019,02,14,17,25,984.50
2019,02,14,17,26,984.50
2019,02,14,17,27,984.50
2019,02,14,17,28,984.50
2019,02,14,17,29,984.50
2019,02,14,17,30,984.50
2019,02,14,17,31,984.60
2019,02,14,17,32,984.60
2019,02,14,17,33,984.60
2019,02,14,17,34,984.60
2019,02,14,17,35,984.60
2019,02,14,17,36,984.60
2019,02,14,17,37,984.60
2019,02,14,17,38,984.60
2019,02,14,17,39,984.60
2019,02,14,17,40,984.60
2019,02,14,17,41,984.60
2019,02,14,17,42,984.60
2019,02,14,17,43,984.60
2019,02,14,17,44,984.60
2019,02,14,17,45,984.60
2019,02,14,17,46,984.60
2019,02,14,17,47,984.60
2019,02,14,17,48,984.60
2019,02,14,17,49,984.60
2019,02,14,17,50,984.60
2019,02,14,17,51,984.60
2019,02,14,17,52,984.60
2019,02,14,17,53,984.70
2019,02,14,17,54,984.70
2019,02,14,17,55,984.80
2019,02,14,17,56,984.70
2019,02,14,17,57,984.80
2019,02,14,17,58,984.80
2019,02,14,17,59,984.80
2019,02,14,18,00,984.80
2019,02,14,18,01,984.90
2019,02,14,18,02,985.00
2019,02,14,18,03,985.00
2019,02,14,18,04,985.00
2019,02,14,18,05,985.00
2019,02,14,18,06,985.00
2019,02,14,18,07,985.00
2019,02,14,18,08,985.10
2019,02,14,18,09,985.10
2019,02,14,18,10,985.10
2019,02,14,18,11,985.10
2019,02,14,18,12,985.10
2019,02,14,18,13,985.10
2019,02,14,18,14,985.10
2019,02,14,18,15,985.10
2019,02,14,18,16,985.10
2019,02,14,18,17,985.10
2019,02,14,18,18,985.20
2019,02,14,18,19,985.20
2019,02,14,18,20,985.20
2019,02,14,18,21,985.20
2019,02,14,18,22,985.20
2019,02,14,18,23,985.20
2019,02,14,18,24,985.20
2019,02,14,18,25,985.20
2019,02,14,18,26,985.10
2019,02,14,18,27,985.10
2019,02,14,18,28,985.10
2019,02,14,18,29,985.10
2019,02,14,18,30,985.10
2019,02,14,18,32,985.30
2019,02,14,18,33,985.30
2019,02,14,18,34,985.50
2019,02,14,18,35,985.50
2019,02,14,18,36,985.60
2019,02,14,18,37,985.60
2019,02,14,18,38,985.60
2019,02,14,18,39,985.60
2019,02,14,18,40,985.60
2019,02,14,18,41,985.60
2019,02,14,18,42,985.60
2019,02,14,18,43,985.70
2019,02,14,18,44,985.60
2019,02,14,18,45,985.60
2019,02,14,18,47,985.60
2019,02,14,18,49,985.50
2019,02,14,18,51,985.50
2019,02,14,18,52,985.50
2019,02,14,18,53,985.40
2019,02,14,18,54,985.50
2019,02,14,18,56,985.60
2019,02,14,18,57,985.60
2019,02,14,18,58,985.60
2019,02,14,18,59,985.60
2019,02,14,19,01,985.70
2019,02,14,19,02,985.70
2019,02,14,19,03,985.80
2019,02,14,19,04,985.90
2019,02,14,19,06,986.10
2019,02,14,19,07,986.20
2019,02,14,19,08,986.20
2019,02,14,19,09,986.20
2019,02,14,19,11,986.20
2019,02,14,19,12,986.20
2019,02,14,19,13,986.20
2019,02,14,19,14,986.30
2019,02,14,19,16,986.30
2019,02,14,19,17,986.30
2019,02,14,19,18,986.30
2019,02,14,19,19,986.30
2019,02,14,19,21,986.20
2019,02,14,19,22,986.30
2019,02,14,19,23,986.30
2019,02,14,19,24,986.30
2019,02,14,19,26,986.30
2019,02,14,19,27,986.30
2019,02,14,19,28,986.40
2019,02,14,19,29,986.40
2019,02,14,19,31,986.50
2019,02,14,19,32,986.50
2019,02,14,19,33,986.50
2019,02,14,19,34,986.50
2019,02,14,19,36,986.40
2019,02,14,19,37,986.40
2019,02,14,19,38,986.40
2019,02,14,19,39,986.40
2019,02,14,19,41,986.50
2019,02,14,19,42,986.50
2019,02,14,19,43,986.50
2019,02,14,19,44,986.70
2019,02,14,19,46,986.70
2019,02,14,19,47,986.70
2019,02,14,19,48,986.70
2019,02,14,19,49,986.70
2019,02,14,19,51,986.70
2019,02,14,19,52,986.70
2019,02,14,19,53,986.70
2019,02,14,19,54,986.70
2019,02,14,19,56,986.70
2019,02,14,19,57,986.80
2019,02,14,19,58,986.80
2019,02,14,19,59,986.80
2019,02,14,20,01,986.70
2019,02,14,20,02,986.70
2019,02,14,20,03,986.70
2019,02,14,20,04,986.70
2019,02,14,20,06,986.70
2019,02,14,20,07,986.70
2019,02,14,20,08,986.70
2019,02,14,20,09,986.80
2019,02,14,20,11,986.70
2019,02,14,20,12,986.80
2019,02,14,20,13,986.80
2019,02,14,20,14,986.80
2019,02,14,20,16,986.70
2019,02,14,20,17,986.80
2019,02,14,20,18,986.80
